| time (UTC) | temp F | wind direction | speed MPH | gust MPH | rain 1hr in | rain 24hr in | rain mn in | humidity % | barometer mb |
| 20260902031537 | 53 | 286 | 0.0 | 0.0 | 0.00 | 0.00 | 0.00 | 1 | 1006.7 |
| 20260902030028 | 54 | 286 | 0.0 | 0.0 | 0.00 | 0.00 | 0.00 | 1 | 1006.7 |
| 20260902024520 | 54 | 286 | 0.0 | 0.0 | 0.00 | 0.00 | 0.00 | 1 | 1006.7 |
| 20260902023028 | 54 | 286 | 0.0 | 0.0 | 0.00 | 0.00 | 0.00 | 1 | 1006.7 |
| 20260902021511 | 55 | 286 | 0.0 | 0.0 | 0.00 | 0.00 | 0.00 | 1 | 1006.7 |
| 20260902020013 | 55 | 286 | 0.0 | 0.0 | 0.00 | 0.00 | 0.00 | 1 | 1006.7 |
| 20260902014502 | 55 | 286 | 0.0 | 0.0 | 0.00 | 0.00 | 0.00 | 1 | 1006.7 |
| 20260902013058 | 56 | 286 | 0.0 | 0.0 | 0.00 | 0.00 | 0.00 | 1 | 1006.7 |
| 20260902011622 | 56 | 286 | 0.0 | 0.0 | 0.00 | 0.00 | 0.00 | 1 | 1006.8 |
| 20260902010049 | 55 | 286 | 0.0 | 0.0 | 0.00 | 0.00 | 0.00 | 1 | 1006.8 |
| 20260902004544 | 55 | 286 | 0.0 | 0.0 | 0.00 | 0.00 | 0.00 | 1 | 1006.9 |
| 20260902003040 | 55 | 286 | 0.0 | 0.0 | 0.00 | 0.00 | 0.00 | 1 | 1006.8 |
| 20260902001536 | 55 | 286 | 0.0 | 0.0 | 0.00 | 0.00 | 0.00 | 1 | 1006.9 |
| 20260902000038 | 56 | 286 | 0.0 | 0.0 | 0.00 | 0.00 | 0.00 | 1 | 1006.9 |
| 20260901234526 | 56 | 286 | 0.0 | 0.0 | 0.00 | 0.00 | 0.00 | 1 | 1006.9 |
| 20260901233025 | 56 | 286 | 0.0 | 0.0 | 0.00 | 0.00 | 0.00 | 1 | 1007.0 |
| 20260901231519 | 56 | 286 | 0.0 | 0.0 | 0.00 | 0.00 | 0.00 | 1 | 1007.0 |
| 20260901230014 | 57 | 286 | 0.0 | 0.0 | 0.00 | 0.00 | 0.00 | 1 | 1007.1 |
| 20260901224515 | 57 | 286 | 0.0 | 0.0 | 0.00 | 0.00 | 0.00 | 1 | 1007.2 |
| 20260901223006 | 57 | 286 | 0.0 | 0.0 | 0.00 | 0.00 | 0.00 | 1 | 1007.2 |
| 20260901221503 | 57 | 286 | 0.0 | 0.0 | 0.00 | 0.00 | 0.00 | 1 | 1007.2 |
| 20260901220115 | 57 | 286 | 0.0 | 0.0 | 0.00 | 0.00 | 0.00 | 1 | 1007.3 |
| 20260901214552 | 57 | 286 | 0.0 | 0.0 | 0.00 | 0.00 | 0.00 | 1 | 1007.3 |
| 20260901213104 | 56 | 286 | 0.0 | 0.0 | 0.00 | 0.00 | 0.00 | 1 | 1007.3 |
| 20260901211544 | 56 | 286 | 0.0 | 0.0 | 0.00 | 0.00 | 0.00 | 1 | 1007.2 |
| 20260901210041 | 56 | 286 | 0.0 | 0.0 | 0.00 | 0.00 | 0.00 | 1 | 1007.2 |
| 20260901204535 | 56 | 286 | 0.0 | 0.0 | 0.00 | 0.00 | 0.00 | 1 | 1007.2 |
| 20260901203031 | 56 | 286 | 0.0 | 0.0 | 0.00 | 0.00 | 0.00 | 1 | 1007.3 |
| 20260901201529 | 56 | 286 | 0.0 | 0.0 | 0.00 | 0.00 | 0.00 | 1 | 1007.6 |
| 20260901200034 | 56 | 286 | 0.0 | 0.0 | 0.00 | 0.00 | 0.00 | 1 | 1007.7 |
| 20260901194520 | 57 | 286 | 0.0 | 0.0 | 0.00 | 0.00 | 0.00 | 1 | 1007.6 |
| 20260901193017 | 57 | 286 | 0.0 | 0.0 | 0.00 | 0.00 | 0.00 | 1 | 1007.5 |
| 20260901191520 | 57 | 286 | 0.0 | 0.0 | 0.00 | 0.00 | 0.00 | 1 | 1007.6 |
| 20260901190010 | 58 | 286 | 0.0 | 0.0 | 0.00 | 0.00 | 0.00 | 1 | 1007.5 |
| 20260901184507 | 58 | 286 | 0.0 | 0.0 | 0.00 | 0.00 | 0.00 | 1 | 1007.5 |
| 20260901183100 | 59 | 286 | 0.0 | 0.0 | 0.00 | 0.00 | 0.00 | 1 | 1007.6 |
| 20260901181614 | 59 | 286 | 0.0 | 0.0 | 0.00 | 0.00 | 0.00 | 1 | 1007.6 |
| 20260901180051 | 60 | 286 | 0.0 | 0.0 | 0.00 | 0.00 | 0.00 | 1 | 1007.6 |
| 20260901174547 | 60 | 286 | 0.0 | 0.0 | 0.00 | 0.00 | 0.00 | 1 | 1007.7 |
| 20260901173042 | 60 | 286 | 0.0 | 0.0 | 0.00 | 0.00 | 0.00 | 1 | 1007.8 |
| 20260901171540 | 61 | 286 | 0.0 | 0.0 | 0.00 | 0.00 | 0.00 | 1 | 1007.8 |
| 20260901170037 | 61 | 286 | 0.0 | 0.0 | 0.00 | 0.00 | 0.00 | 1 | 1007.7 |
| 20260901164529 | 62 | 286 | 0.0 | 0.0 | 0.00 | 0.00 | 0.00 | 1 | 1007.6 |
| 20260901163024 | 63 | 286 | 0.0 | 0.0 | 0.00 | 0.00 | 0.00 | 1 | 1007.6 |
| 20260901161527 | 63 | 286 | 0.0 | 2.0 | 0.00 | 0.00 | 0.00 | 1 | 1007.6 |
| 20260901160015 | 64 | 286 | 0.0 | 2.0 | 0.00 | 0.00 | 0.00 | 1 | 1007.4 |
| 20260901154511 | 64 | 284 | 0.0 | 0.0 | 0.00 | 0.00 | 0.00 | 1 | 1007.7 |
| 20260901153011 | 65 | 282 | 0.0 | 1.0 | 0.00 | 0.00 | 0.00 | 1 | 1007.8 |
| 20260901151508 | 65 | 301 | 0.0 | 3.0 | 0.00 | 0.00 | 0.00 | 2 | 1007.8 |
| 20260901150112 | 65 | 182 | 0.0 | 1.0 | 0.00 | 0.00 | 0.00 | 14 | 1007.9 |
| 20260901144557 | 65 | 171 | 0.0 | 4.0 | 0.00 | 0.00 | 0.00 | 12 | 1008.0 |
| 20260901143110 | 65 | 259 | 0.0 | 3.0 | 0.00 | 0.00 | 0.00 | 11 | 1008.0 |
| 20260901141546 | 65 | 107 | 0.0 | 3.0 | 0.00 | 0.00 | 0.00 | 21 | 1008.0 |
| 20260901140123 | 66 | 279 | 0.0 | 7.0 | 0.00 | 0.00 | 0.00 | 27 | 1008.1 |
| 20260901134538 | 66 | 317 | 0.0 | 4.0 | 0.00 | 0.00 | 0.00 | 30 | 1008.2 |
| 20260901133033 | 66 | 329 | 0.0 | 3.0 | 0.00 | 0.00 | 0.00 | 23 | 1008.1 |
| 20260901131537 | 66 | 276 | 0.0 | 5.0 | 0.00 | 0.00 | 0.00 | 18 | 1008.0 |
| 20260901130024 | 65 | 227 | 0.0 | 4.0 | 0.00 | 0.00 | 0.00 | 26 | 1008.1 |
| 20260901124521 | 65 | 98 | 0.0 | 8.0 | 0.00 | 0.00 | 0.00 | 21 | 1008.2 |
| 20260901123017 | 65 | 348 | 1.0 | 10.0 | 0.00 | 0.00 | 0.00 | 24 | 1008.4 |
| 20260901121512 | 65 | 248 | 1.0 | 9.0 | 0.00 | 0.00 | 0.00 | 10 | 1008.5 |
| 20260901120015 | 65 | 101 | 1.0 | 8.0 | 0.00 | 0.00 | 0.00 | 11 | 1008.6 |
| 20260901114501 | 65 | 27 | 0.0 | 10.0 | 0.00 | 0.02 | 0.00 | 12 | 1008.6 |
| 20260901113103 | 65 | 38 | 2.0 | 8.0 | 0.00 | 0.02 | 0.00 | 8 | 1008.7 |
| 20260901111554 | 65 | 311 | 0.0 | 6.0 | 0.00 | 0.02 | 0.00 | 1 | 1008.6 |
| 20260901110050 | 65 | 304 | 0.0 | 3.0 | 0.00 | 0.02 | 0.00 | 1 | 1008.6 |
| 20260901104546 | 64 | 70 | 0.0 | 3.0 | 0.00 | 0.03 | 0.00 | 1 | 1008.7 |
| 20260901103040 | 64 | 311 | 0.0 | 4.0 | 0.00 | 0.03 | 0.00 | 1 | 1008.7 |
| 20260901101554 | 64 | 323 | 0.0 | 1.0 | 0.00 | 0.03 | 0.00 | 1 | 1008.6 |
| 20260901100032 | 64 | 19 | 0.0 | 9.0 | 0.00 | 0.03 | 0.00 | 1 | 1008.5 |
| 20260901094537 | 64 | 285 | 0.0 | 8.0 | 0.00 | 0.04 | 0.00 | 1 | 1008.4 |
| 20260901093021 | 64 | 315 | 0.0 | 3.0 | 0.00 | 0.04 | 0.00 | 1 | 1008.3 |
| 20260901091520 | 64 | 254 | 0.0 | 6.0 | 0.00 | 0.04 | 0.00 | 1 | 1008.3 |
| 20260901090013 | 65 | 290 | 1.0 | 8.0 | 0.00 | 0.04 | 0.00 | 1 | 1008.2 |
| 20260901084509 | 65 | 88 | 0.0 | 0.0 | 0.00 | 0.04 | 0.00 | 1 | 1008.3 |
| 20260901083004 | 65 | 277 | 0.0 | 4.0 | 0.00 | 0.04 | 0.00 | 1 | 1008.2 |
| 20260901081603 | 65 | 323 | 0.0 | 3.0 | 0.00 | 0.04 | 0.00 | 1 | 1008.2 |
| 20260901080152 | 64 | 59 | 0.0 | 4.0 | 0.00 | 0.04 | 0.00 | 1 | 1008.1 |
| 20260901074553 | 64 | 57 | 0.0 | 3.0 | 0.00 | 0.11 | 0.00 | 1 | 1008.2 |
| 20260901073049 | 63 | 95 | 0.0 | 4.0 | 0.00 | 0.11 | 0.00 | 1 | 1008.1 |
| 20260901071544 | 63 | 138 | 0.0 | 2.0 | 0.00 | 0.11 | 0.00 | 1 | 1008.1 |
| 20260901070039 | 62 | 308 | 0.0 | 2.0 | 0.00 | 0.11 | 0.00 | 1 | 1008.1 |
| 20260901064535 | 62 | 286 | 0.0 | 2.0 | 0.00 | 0.20 | 0.00 | 1 | 1008.0 |
| 20260901063040 | 61 | 342 | 0.0 | 1.0 | 0.00 | 0.20 | 0.00 | 1 | 1008.0 |
| 20260901061526 | 61 | 340 | 0.0 | 3.0 | 0.00 | 0.20 | 0.00 | 1 | 1008.0 |
| 20260901060022 | 61 | 29 | 0.0 | 2.0 | 0.00 | 0.20 | 0.00 | 1 | 1008.1 |
| 20260901054518 | 60 | 298 | 0.0 | 1.0 | 0.00 | 0.28 | 0.00 | 1 | 1008.0 |
| 20260901053012 | 60 | 283 | 0.0 | 2.0 | 0.00 | 0.28 | 0.00 | 1 | 1008.1 |
| 20260901051509 | 60 | 283 | 0.0 | 0.0 | 0.00 | 0.28 | 0.00 | 1 | 1008.0 |
| 20260901050005 | 59 | 283 | 0.0 | 0.0 | 0.00 | 0.28 | 0.00 | 1 | 1008.0 |
| 20260901044501 | 59 | 283 | 0.0 | 0.0 | 0.00 | 0.28 | 0.00 | 1 | 1008.0 |
| 20260901043057 | 59 | 283 | 0.0 | 1.0 | 0.00 | 0.28 | 0.00 | 1 | 1008.0 |
| 20260901041552 | 59 | 283 | 0.0 | 0.0 | 0.00 | 0.28 | 0.00 | 1 | 1008.0 |
| 20260901040058 | 58 | 283 | 0.0 | 0.0 | 0.00 | 0.28 | 0.00 | 1 | 1008.1 |
| 20260901034543 | 58 | 283 | 0.0 | 0.0 | 0.00 | 0.28 | 0.00 | 1 | 1008.1 |
| 20260901033040 | 58 | 283 | 0.0 | 0.0 | 0.00 | 0.28 | 0.00 | 1 | 1008.0 |